"startDT [UTC]","vpos","CH4 [ppm]","stdev(CH4) [ppm]","CO2 [ppm]","stdev(CO2) [ppm]","H2O [ppm]","stdev(H2O)","p_LGR [torr]","T_LGR [C]","mt1_LGR [us]","mt2_LGR [us]","T_ECpre [C]","T_EC1 [C]","T_EC2 [C]","p_inlet [hPa]","p_in [hPa]","p_out [hPa]","T_inlet [C]","RH_inlet [%]","dwpt_inlet [C]","T_vent [C]","RH_vent [%]","dwpt_vent [C]","flow_vent [l min-1]","flow_inlet [l min-1]","dwpt_sample [C]","T_room [C]"
2012-03-09 00:00:00,0.0,1.9264,0.0011,402.65,0.39,163.4,38.3,138.13,27.54,24.59,36.31,0.04,-272.73,-272.73,-48,564,-921,21.5,3.6,-23.5,21.8,3.7,-23.0,5.73,2.48,-25.0,27.4
2012-03-09 00:01:00,0.0,1.9270,0.0009,402.75,0.36,159.6,32.7,138.13,27.55,24.59,36.31,0.04,-272.73,-272.73,-48,564,-921,21.5,3.6,-23.5,21.8,3.6,-23.1,5.73,2.25,-25.0,27.4
2012-03-09 00:02:00,0.0,1.9271,0.0008,402.82,0.37,171.4,34.0,138.13,27.55,24.59,36.31,0.04,-272.73,-272.73,-49,563,-921,21.5,3.6,-23.5,21.8,3.6,-23.1,5.73,2.46,-25.0,27.4
2012-03-09 00:03:00,0.0,1.9274,0.0011,402.84,0.31,163.4,34.5,138.13,27.56,24.59,36.31,0.04,-272.73,-272.73,-48,564,-921,21.5,3.6,-23.6,21.8,3.6,-23.1,5.73,2.27,-25.0,27.4
2012-03-09 00:04:00,0.0,1.9282,0.0009,402.81,0.39,159.1,39.8,138.13,27.57,24.59,36.31,0.04,-272.73,-272.73,-48,563,-921,21.5,3.6,-23.6,21.9,3.6,-23.2,5.73,2.42,-25.0,27.4
2012-03-09 00:05:00,0.0,1.9281,0.0010,402.86,0.33,167.2,26.8,138.13,27.57,24.59,36.31,0.04,-272.73,-272.73,-49,563,-921,21.5,3.5,-23.7,21.8,3.6,-23.2,5.73,2.34,-25.0,27.4
2012-03-09 00:06:00,0.0,1.9292,0.0010,402.86,0.36,161.0,34.8,138.13,27.58,24.59,36.31,0.04,-272.73,-272.73,-48,564,-921,21.5,3.5,-23.7,21.8,3.6,-23.3,5.73,2.34,-25.0,27.4
2012-03-09 00:07:00,0.0,1.9302,0.0010,403.00,0.36,162.3,33.2,138.13,27.59,24.59,36.30,0.04,-272.73,-272.73,-49,563,-921,21.5,3.5,-23.7,21.9,3.6,-23.3,5.73,2.41,-25.0,27.4
2012-03-09 00:08:00,0.0,1.9306,0.0010,402.90,0.36,162.5,36.7,138.12,27.59,24.60,36.31,0.04,-272.73,-272.73,-48,564,-921,21.6,3.5,-23.8,21.9,3.6,-23.3,5.73,2.28,-25.0,27.4
2012-03-09 00:09:00,0.0,1.9311,0.0010,402.89,0.38,166.2,35.1,138.13,27.60,24.60,36.31,0.04,-272.73,-272.73,-48,564,-921,21.6,3.5,-23.8,21.9,3.5,-23.4,5.73,2.46,-25.0,27.4
2012-03-09 00:10:00,0.0,1.9319,0.0011,403.00,0.33,170.8,34.6,138.12,27.61,24.59,36.31,0.04,-272.73,-272.73,-49,564,-921,21.6,3.5,-23.8,21.9,3.5,-23.4,5.73,2.25,-25.0,27.4
2012-03-09 00:11:00,0.0,1.9312,0.0009,403.00,0.36,166.1,31.9,138.13,27.61,24.59,36.31,0.04,-272.73,-272.73,-48,564,-921,21.6,3.4,-23.9,21.9,3.5,-23.4,5.73,2.47,-25.1,27.4
2012-03-09 00:12:00,0.0,1.9317,0.0011,403.07,0.39,168.2,41.3,138.12,27.62,24.60,36.31,0.04,-272.73,-272.74,-49,564,-921,21.6,3.4,-23.9,21.9,3.5,-23.4,5.73,2.25,-25.0,27.4
2012-03-09 00:13:00,0.0,1.9316,0.0008,402.87,0.34,169.3,33.0,138.13,27.63,24.60,36.32,0.04,-272.73,-272.73,-48,564,-921,21.6,3.4,-23.9,21.9,3.5,-23.5,5.73,2.45,-25.0,27.5
2012-03-09 00:14:00,0.0,1.9319,0.0008,403.04,0.38,158.0,39.1,138.13,27.63,24.59,36.31,0.04,-272.73,-272.73,-48,564,-921,21.6,3.4,-23.9,21.9,3.5,-23.5,5.73,2.30,-25.0,27.4
2012-03-09 00:15:00,0.0,1.9320,0.0007,403.09,0.35,171.7,32.1,138.13,27.64,24.59,36.31,0.04,-272.73,-272.73,-49,564,-921,21.6,3.4,-24.0,21.9,3.5,-23.5,5.73,2.38,-25.0,27.5
2012-03-09 00:16:00,0.0,1.9320,0.0009,403.12,0.35,165.1,33.3,138.13,27.65,24.60,36.31,0.04,-272.73,-272.73,-48,564,-921,21.6,3.4,-24.0,21.9,3.5,-23.6,5.73,2.36,-25.0,27.5
2012-03-09 00:17:00,0.0,1.9324,0.0011,403.08,0.36,162.4,38.3,138.13,27.65,24.59,36.31,0.04,-272.73,-272.73,-49,564,-921,21.6,3.4,-24.0,21.9,3.5,-23.6,5.73,2.33,-25.1,27.4
2012-03-09 00:18:00,0.0,1.9323,0.0009,403.04,0.36,171.0,32.9,138.13,27.66,24.60,36.31,0.04,-272.73,-272.73,-48,564,-920,21.6,3.4,-24.0,21.9,3.5,-23.6,5.73,2.42,-25.1,27.4
2012-03-09 00:19:00,0.0,1.9324,0.0009,403.11,0.33,175.3,33.8,138.12,27.66,24.60,36.31,0.04,-272.73,-272.73,-48,564,-921,21.6,3.4,-24.0,21.9,3.5,-23.6,5.73,2.27,-25.1,27.5
2012-03-09 00:20:00,0.0,1.9330,0.0012,403.16,0.32,168.0,32.9,138.12,27.67,24.60,36.31,0.04,-272.73,-272.73,-49,564,-921,21.6,3.4,-24.0,21.9,3.5,-23.6,5.73,2.47,-25.1,27.5
2012-03-09 00:21:00,0.0,1.9333,0.0010,403.10,0.30,177.6,33.8,138.12,27.68,24.60,36.32,0.04,-272.73,-272.73,-48,564,-920,21.6,3.4,-24.0,21.9,3.5,-23.6,5.73,2.24,-25.1,27.5
2012-03-09 00:22:00,0.0,1.9335,0.0009,403.18,0.31,170.4,34.9,138.12,27.68,24.60,36.32,0.04,-272.73,-272.73,-49,564,-920,21.6,3.4,-24.0,21.9,3.5,-23.6,5.73,2.47,-25.1,27.5
2012-03-09 00:23:00,0.0,1.9341,0.0010,403.10,0.35,163.1,31.5,138.12,27.69,24.60,36.31,0.04,-272.73,-272.73,-48,564,-921,21.7,3.4,-24.1,21.9,3.4,-23.7,5.73,2.25,-25.1,27.5
2012-03-09 00:24:00,0.0,1.9339,0.0008,403.16,0.32,157.2,34.0,138.12,27.70,24.60,36.31,0.04,-272.73,-272.73,-48,564,-920,21.7,3.4,-24.1,21.9,3.4,-23.6,5.73,2.44,-25.1,27.5
2012-03-09 00:25:00,0.0,1.9340,0.0009,403.16,0.32,175.0,39.2,138.12,27.70,24.60,36.32,0.04,-272.73,-272.73,-49,564,-921,21.7,3.4,-24.1,21.9,3.4,-23.7,5.73,2.29,-25.1,27.4
2012-03-09 00:26:00,0.0,1.9340,0.0010,403.25,0.35,176.3,36.1,138.12,27.71,24.60,36.31,0.04,-272.73,-272.73,-48,564,-921,21.7,3.4,-24.1,21.9,3.4,-23.7,5.73,2.38,-25.1,27.5
2012-03-09 00:27:00,0.0,1.9349,0.0009,403.14,0.39,169.2,26.0,138.12,27.72,24.59,36.32,0.04,-272.73,-272.73,-49,564,-921,21.7,3.4,-24.1,22.0,3.4,-23.7,5.73,2.36,-25.1,27.6
2012-03-09 00:28:00,0.0,1.9345,0.0009,403.17,0.34,168.4,37.8,138.12,27.72,24.60,36.31,0.04,-272.73,-272.73,-48,564,-921,21.6,3.4,-24.1,22.0,3.4,-23.7,5.73,2.32,-25.1,27.5
2012-03-09 00:29:00,0.0,1.9347,0.0009,403.17,0.29,177.1,32.8,138.12,27.73,24.60,36.31,0.04,-272.73,-272.73,-48,564,-921,21.7,3.4,-24.1,22.0,3.4,-23.7,5.73,2.43,-25.1,27.5
2012-03-09 00:30:00,0.0,1.9351,0.0008,403.19,0.33,171.5,33.2,138.12,27.73,24.60,36.32,0.04,-272.73,-272.73,-49,564,-921,21.7,3.3,-24.2,22.0,3.4,-23.7,5.73,2.27,-25.1,27.5
2012-03-09 00:31:00,0.0,1.9354,0.0008,403.23,0.30,172.0,34.4,138.12,27.74,24.60,36.31,0.04,-272.73,-272.73,-48,564,-921,21.7,3.3,-24.2,22.0,3.4,-23.8,5.73,2.46,-25.1,27.6
2012-03-09 00:32:00,0.0,1.9357,0.0009,403.31,0.37,167.8,34.7,138.12,27.75,24.59,36.31,0.04,-272.73,-272.73,-49,564,-921,21.7,3.3,-24.3,22.0,3.4,-23.9,5.73,2.24,-25.1,27.6
2012-03-09 00:33:00,0.0,1.9355,0.0009,403.16,0.34,169.3,32.9,138.12,27.75,24.60,36.32,0.04,-272.73,-272.73,-49,564,-921,21.7,3.3,-24.4,22.0,3.4,-23.9,5.73,2.47,-25.1,27.5
2012-03-09 00:34:00,0.0,1.9358,0.0009,403.22,0.30,169.1,37.2,138.12,27.76,24.60,36.31,0.04,-272.73,-272.73,-48,564,-921,21.7,3.3,-24.4,22.0,3.4,-23.9,5.73,2.26,-25.1,27.5
2012-03-09 00:35:00,0.0,1.9359,0.0011,403.13,0.35,175.3,39.8,138.12,27.77,24.60,36.32,0.04,-272.73,-272.73,-49,564,-921,21.7,3.3,-24.4,22.0,3.3,-24.0,5.73,2.43,-25.1,27.5
2012-03-09 00:36:00,0.0,1.9356,0.0009,403.21,0.31,178.8,40.5,138.12,27.77,24.60,36.31,0.04,-272.73,-272.73,-48,564,-921,21.7,3.2,-24.5,22.0,3.3,-24.0,5.73,2.31,-25.1,27.5
2012-03-09 00:37:00,0.0,1.9359,0.0010,403.14,0.31,179.4,35.4,138.12,27.78,24.60,36.32,0.04,-272.73,-272.73,-49,564,-921,21.7,3.2,-24.5,22.0,3.3,-24.0,5.73,2.36,-25.1,27.6
2012-03-09 00:38:00,0.0,1.9359,0.0009,403.09,0.31,168.1,38.5,138.12,27.78,24.60,36.32,0.04,-272.73,-272.73,-49,564,-921,21.7,3.2,-24.5,22.0,3.3,-24.1,5.73,2.39,-25.1,27.6
2012-03-09 00:39:00,0.0,1.9359,0.0009,403.22,0.34,170.1,32.5,138.12,27.79,24.60,36.32,0.04,-272.73,-272.73,-48,564,-921,21.7,3.3,-24.5,22.0,3.3,-24.1,5.73,2.29,-25.1,27.6
2012-03-09 00:40:00,0.0,1.9359,0.0009,403.26,0.34,170.6,40.8,138.12,27.79,24.60,36.32,0.04,-272.73,-272.73,-49,564,-921,21.7,3.3,-24.4,22.0,3.3,-24.1,5.73,2.45,-25.1,27.6
2012-03-09 00:41:00,0.0,1.9359,0.0008,403.30,0.33,166.8,34.2,138.12,27.80,24.60,36.32,0.04,-272.73,-272.73,-48,564,-921,21.7,3.2,-24.5,22.0,3.3,-24.1,5.73,2.25,-25.2,27.6
2012-03-09 00:42:00,0.0,1.9361,0.0009,403.14,0.31,175.1,30.8,138.12,27.81,24.60,36.32,0.04,-272.73,-272.73,-48,564,-921,21.7,3.2,-24.5,22.0,3.3,-24.0,5.73,2.47,-25.2,27.6
2012-03-09 00:43:00,0.0,1.9361,0.0009,403.27,0.31,170.2,31.2,138.12,27.81,24.60,36.32,0.04,-272.73,-272.73,-49,564,-921,21.7,3.2,-24.5,22.1,3.3,-24.0,5.73,2.24,-25.1,27.5
2012-03-09 00:44:00,0.0,1.9363,0.0011,403.30,0.29,171.0,31.1,138.12,27.82,24.60,36.31,0.04,-272.73,-272.73,-48,564,-921,21.7,3.2,-24.6,22.1,3.3,-24.1,5.73,2.45,-25.2,27.5
2012-03-09 00:45:00,0.0,1.9368,0.0009,403.28,0.40,168.7,36.4,138.12,27.82,24.60,36.32,0.04,-272.73,-272.73,-49,564,-921,21.7,3.2,-24.6,22.1,3.3,-24.1,5.73,2.30,-25.1,27.6
2012-03-09 00:46:00,0.0,1.9365,0.0009,403.22,0.33,165.2,37.1,138.12,27.83,24.60,36.32,0.04,-272.73,-272.73,-48,564,-921,21.7,3.2,-24.6,22.1,3.3,-24.1,5.73,2.37,-25.2,27.6
2012-03-09 00:47:00,0.0,1.9370,0.0009,403.31,0.32,164.5,35.6,138.12,27.84,24.60,36.31,0.04,-272.73,-272.73,-48,564,-921,21.7,3.2,-24.6,22.1,3.3,-24.1,5.73,2.38,-25.2,27.6
2012-03-09 00:48:00,0.0,1.9369,0.0008,403.18,0.34,164.8,33.7,138.12,27.84,24.60,36.33,0.04,-272.73,-272.73,-49,564,-921,21.7,3.2,-24.6,22.1,3.3,-24.1,5.73,2.29,-25.2,27.6
2012-03-09 00:49:00,0.0,1.9368,0.0010,403.20,0.37,165.1,35.8,138.12,27.85,24.60,36.32,0.04,-272.73,-272.74,-48,564,-921,21.7,3.2,-24.7,22.1,3.3,-24.2,5.73,2.45,-25.2,27.6
2012-03-09 00:50:00,0.0,1.9367,0.0009,403.32,0.30,166.3,30.8,138.12,27.85,24.60,36.32,0.04,-272.73,-272.73,-49,564,-921,21.7,3.2,-24.6,22.1,3.3,-24.1,5.73,2.24,-25.2,27.6
2012-03-09 00:51:00,0.0,1.9369,0.0009,403.24,0.36,168.5,31.7,138.12,27.86,24.60,36.32,0.04,-272.73,-272.73,-49,564,-921,21.8,3.2,-24.6,22.1,3.3,-24.1,5.73,2.47,-25.2,27.6
2012-03-09 00:52:00,0.0,1.9368,0.0009,403.38,0.37,163.0,40.3,138.12,27.87,24.60,36.31,0.04,-272.73,-272.73,-48,564,-921,21.8,3.2,-24.6,22.1,3.3,-24.1,5.73,2.25,-25.2,27.6
2012-03-09 00:53:00,0.0,1.9369,0.0009,403.29,0.35,174.1,39.7,138.12,27.87,24.60,36.32,0.04,-272.73,-272.73,-49,564,-921,21.8,3.2,-24.6,22.1,3.3,-24.1,5.73,2.45,-25.2,27.6
2012-03-09 00:54:00,0.0,1.9370,0.0008,403.23,0.32,162.9,34.4,138.12,27.88,24.60,36.32,0.04,-272.73,-272.73,-48,564,-921,21.8,3.2,-24.6,22.1,3.2,-24.2,5.73,2.29,-25.2,27.6
2012-03-09 00:55:00,0.0,1.9370,0.0008,403.28,0.32,169.4,34.8,138.12,27.89,24.60,36.32,0.04,-272.73,-272.73,-49,564,-921,21.8,3.2,-24.6,22.1,3.2,-24.2,5.73,2.39,-25.2,27.7
2012-03-09 00:56:00,0.0,1.9366,0.0010,403.15,0.31,172.2,37.2,138.12,27.89,24.60,36.33,0.04,-272.73,-272.73,-49,564,-921,21.8,3.2,-24.7,22.1,3.3,-24.2,5.73,2.36,-25.2,27.6
2012-03-09 00:57:00,0.0,1.9365,0.0010,403.20,0.33,179.4,34.4,138.12,27.90,24.60,36.32,0.04,-272.73,-272.73,-48,564,-921,21.8,3.2,-24.7,22.1,3.2,-24.2,5.73,2.32,-25.2,27.7
2012-03-09 00:58:00,0.0,1.9367,0.0009,403.15,0.37,162.1,37.3,138.12,27.90,24.60,36.32,0.04,-272.73,-272.73,-49,564,-921,21.8,3.2,-24.7,22.1,3.2,-24.2,5.73,2.43,-25.2,27.7
2012-03-09 00:59:00,0.0,1.9366,0.0009,403.21,0.33,169.2,34.5,138.12,27.91,24.60,36.32,0.04,-272.73,-272.73,-48,564,-921,21.8,3.2,-24.7,22.1,3.2,-24.3,5.73,2.26,-25.2,27.7
2012-03-09 01:00:00,0.0,1.9370,0.0011,403.20,0.30,173.4,31.0,138.12,27.91,24.60,36.32,0.04,-272.73,-272.73,-48,564,-921,21.8,3.2,-24.7,22.1,3.2,-24.3,5.73,2.47,-25.2,27.7
2012-03-09 01:01:00,0.0,1.9370,0.0009,403.14,0.34,169.5,29.9,138.12,27.92,24.60,36.33,0.04,-272.73,-272.73,-49,564,-922,21.8,3.2,-24.7,22.1,3.2,-24.2,5.73,2.24,-25.2,27.7
2012-03-09 01:02:00,0.0,1.9367,0.0010,403.18,0.30,167.2,37.1,138.12,27.93,24.60,36.32,0.04,-272.73,-272.73,-48,564,-921,21.8,3.1,-24.8,22.1,3.2,-24.3,5.73,2.46,-25.2,27.7
2012-03-09 01:03:00,0.0,1.9366,0.0009,403.17,0.34,170.8,38.2,138.12,27.93,24.60,36.32,0.04,-272.73,-272.73,-49,564,-921,21.8,3.1,-24.8,22.1,3.2,-24.4,5.73,2.27,-25.2,27.7
2012-03-09 01:04:00,0.0,1.9366,0.0009,403.23,0.37,169.6,33.4,138.12,27.94,24.60,36.32,0.04,-272.73,-272.73,-49,564,-921,21.8,3.1,-24.8,22.1,3.2,-24.4,5.73,2.40,-25.2,27.7
2012-03-09 01:05:00,0.0,1.9366,0.0009,403.12,0.30,165.2,36.1,138.12,27.94,24.60,36.33,0.04,-272.72,-272.73,-48,564,-921,21.8,3.1,-24.9,22.2,3.2,-24.3,5.73,2.34,-25.2,27.7
2012-03-09 01:06:00,0.0,1.9366,0.0009,403.16,0.38,168.0,33.5,138.12,27.95,24.60,36.33,0.04,-272.73,-272.73,-49,564,-922,21.8,3.1,-24.9,22.2,3.2,-24.4,5.73,2.33,-25.3,27.7
2012-03-09 01:07:00,0.0,1.9365,0.0010,403.29,0.37,167.9,41.5,138.12,27.95,24.60,36.32,0.04,-272.73,-272.73,-48,565,-921,21.8,3.1,-24.8,22.2,3.2,-24.3,5.73,2.42,-25.2,27.7
2012-03-09 01:08:00,0.0,1.9367,0.0008,403.22,0.34,169.4,38.9,138.12,27.96,24.60,36.32,0.04,-272.73,-272.73,-49,565,-922,21.9,3.1,-24.8,22.2,3.2,-24.3,5.73,2.26,-25.3,27.7
2012-03-09 01:09:00,0.0,1.9370,0.0009,403.13,0.35,169.9,32.9,138.12,27.97,24.60,36.33,0.04,-272.73,-272.73,-49,564,-922,21.9,3.1,-24.9,22.2,3.2,-24.3,5.73,2.47,-25.3,27.7
2012-03-09 01:10:00,0.0,1.9362,0.0009,403.16,0.33,163.7,37.7,138.12,27.97,24.60,36.33,0.04,-272.73,-272.74,-48,565,-922,21.9,3.1,-24.8,22.2,3.2,-24.4,5.73,2.24,-25.3,27.7
2012-03-09 01:11:00,0.0,1.9362,0.0008,403.11,0.36,162.7,32.3,138.12,27.98,24.60,36.32,0.04,-272.73,-272.73,-49,565,-922,21.9,3.1,-24.8,22.2,3.2,-24.4,5.73,2.47,-25.3,27.7
2012-03-09 01:12:00,0.0,1.9363,0.0011,403.10,0.34,161.7,32.0,138.12,27.99,24.60,36.33,0.04,-272.73,-272.73,-48,564,-921,21.9,3.1,-24.9,22.2,3.2,-24.4,5.73,2.26,-25.3,27.7
2012-03-09 01:13:00,0.0,1.9363,0.0009,403.06,0.35,163.6,38.8,138.12,27.99,24.60,36.33,0.04,-272.73,-272.73,-49,565,-921,21.9,3.1,-24.9,22.2,3.1,-24.5,5.73,2.42,-25.3,27.7
2012-03-09 01:14:00,0.0,1.9362,0.0011,403.08,0.32,156.5,31.6,138.12,28.00,24.60,36.33,0.04,-272.73,-272.73,-49,565,-921,21.9,3.1,-24.9,22.2,3.1,-24.5,5.73,2.32,-25.3,27.7
2012-03-09 01:15:00,0.0,1.9362,0.0009,403.10,0.30,163.9,36.9,138.12,28.00,24.60,36.33,0.04,-272.73,-272.73,-48,565,-922,21.9,3.1,-24.9,22.2,3.1,-24.5,5.73,2.36,-25.3,27.7
2012-03-09 01:16:00,0.0,1.9350,0.0009,403.01,0.30,169.5,36.8,138.12,28.01,24.60,36.33,0.04,-272.73,-272.73,-49,565,-922,21.9,3.1,-24.9,22.2,3.1,-24.5,5.73,2.40,-25.3,27.8
2012-03-09 01:17:00,0.0,1.9325,0.0011,402.84,0.34,165.9,35.9,138.12,28.01,24.60,36.32,0.04,-272.73,-272.73,-48,565,-922,21.9,3.0,-25.1,22.2,3.1,-24.6,5.73,2.28,-25.3,27.7
2012-03-09 01:18:00,0.0,1.9318,0.0009,402.79,0.28,170.1,38.2,138.12,28.02,24.60,36.33,0.04,-272.73,-272.73,-49,564,-921,21.9,3.0,-25.2,22.2,3.1,-24.8,5.73,2.46,-25.3,27.8
2012-03-09 01:19:00,0.0,1.9321,0.0008,402.69,0.32,167.6,34.8,138.12,28.03,24.60,36.33,0.04,-272.73,-272.73,-49,565,-921,21.9,3.0,-25.3,22.2,3.0,-24.8,5.73,2.24,-25.3,27.7
2012-03-09 01:20:00,0.0,1.9325,0.0008,402.83,0.31,160.6,39.6,138.12,28.03,24.59,36.33,0.04,-272.73,-272.73,-48,565,-921,21.9,3.0,-25.3,22.2,3.0,-24.9,5.73,2.47,-25.3,27.8
2012-03-09 01:21:00,0.0,1.9315,0.0010,402.71,0.38,160.7,35.0,138.12,28.04,24.60,36.33,0.04,-272.73,-272.73,-49,565,-921,21.9,3.0,-25.4,22.2,3.0,-24.9,5.73,2.25,-25.3,27.7
2012-03-09 01:22:00,0.0,1.9316,0.0010,402.75,0.34,165.1,28.7,138.12,28.04,24.60,36.33,0.04,-272.73,-272.73,-49,565,-922,21.9,2.9,-25.4,22.2,3.0,-25.0,5.73,2.44,-25.3,27.8
2012-03-09 01:23:00,0.0,1.9318,0.0010,402.78,0.37,168.1,35.4,138.12,28.05,24.60,36.32,0.04,-272.73,-272.73,-49,564,-922,21.9,2.9,-25.5,22.3,3.0,-25.0,5.73,2.30,-25.3,27.8
2012-03-09 01:24:00,0.0,1.9316,0.0009,402.65,0.36,165.1,35.5,138.12,28.05,24.60,36.33,0.04,-272.73,-272.73,-49,565,-921,21.9,2.9,-25.5,22.3,3.0,-25.0,5.73,2.37,-25.3,27.8
2012-03-09 01:25:00,0.0,1.9310,0.0009,402.64,0.34,158.3,33.5,138.12,28.06,24.60,36.32,0.04,-272.73,-272.73,-48,565,-921,21.9,2.9,-25.5,22.3,3.0,-25.1,5.73,2.38,-25.3,27.8
2012-03-09 01:26:00,0.0,1.9317,0.0010,402.68,0.34,165.5,37.5,138.12,28.06,24.60,36.33,0.04,-272.73,-272.73,-49,565,-921,21.9,2.9,-25.6,22.3,3.0,-25.1,5.73,2.30,-25.3,27.8
2012-03-09 01:27:00,0.0,1.9313,0.0011,402.64,0.31,170.9,37.4,138.12,28.07,24.60,36.33,0.04,-272.73,-272.73,-49,565,-921,21.9,2.9,-25.6,22.3,2.9,-25.2,5.73,2.44,-25.3,27.8
2012-03-09 01:28:00,0.0,1.9312,0.0009,402.70,0.28,165.5,33.9,138.12,28.07,24.60,36.33,0.04,-272.73,-272.73,-49,565,-921,22.0,2.9,-25.6,22.3,2.9,-25.2,5.73,2.25,-25.4,27.8
2012-03-09 01:29:00,0.0,1.9309,0.0010,402.58,0.36,172.8,32.6,138.12,28.08,24.60,36.33,0.04,-272.73,-272.73,-49,565,-921,21.9,2.9,-25.7,22.3,2.9,-25.2,5.73,2.46,-25.4,27.8
2012-03-09 01:30:00,0.0,1.9308,0.0009,402.67,0.33,166.3,31.7,138.12,28.09,24.60,36.33,0.04,-272.73,-272.73,-48,565,-922,21.9,2.9,-25.7,22.3,2.9,-25.3,5.73,2.24,-25.4,27.8
2012-03-09 01:31:00,0.0,1.9305,0.0008,402.74,0.34,167.5,32.8,138.12,28.09,24.60,36.32,0.04,-272.73,-272.73,-49,565,-922,21.9,2.8,-25.8,22.3,2.9,-25.3,5.73,2.47,-25.4,27.8
2012-03-09 01:32:00,0.0,1.9306,0.0009,402.69,0.31,161.4,32.5,138.12,28.10,24.60,36.32,0.04,-272.73,-272.73,-49,565,-922,22.0,2.8,-25.7,22.3,2.9,-25.3,5.73,2.26,-25.4,27.8
2012-03-09 01:33:00,0.0,1.9309,0.0010,402.70,0.33,162.5,37.2,138.12,28.11,24.60,36.33,0.04,-272.73,-272.73,-49,565,-921,21.9,2.8,-25.8,22.3,2.9,-25.4,5.73,2.42,-25.4,27.8
2012-03-09 01:34:00,0.0,1.9305,0.0011,402.74,0.39,166.6,36.7,138.12,28.11,24.60,36.33,0.04,-272.73,-272.73,-49,565,-921,21.9,2.8,-25.8,22.3,2.9,-25.4,5.73,2.32,-25.4,27.8
2012-03-09 01:35:00,0.0,1.9306,0.0010,402.56,0.33,158.7,31.4,138.12,28.12,24.60,36.33,0.04,-272.73,-272.73,-48,565,-922,21.9,2.8,-25.9,22.3,2.9,-25.4,5.73,2.35,-25.4,27.8
2012-03-09 01:36:00,0.0,1.9307,0.0009,402.64,0.32,168.2,34.3,138.11,28.12,24.60,36.33,0.04,-272.73,-272.73,-49,565,-922,21.9,2.8,-25.9,22.3,2.9,-25.4,5.73,2.39,-25.4,27.8
2012-03-09 01:37:00,0.0,1.9305,0.0009,402.56,0.33,163.8,33.3,138.12,28.13,24.60,36.33,0.04,-272.73,-272.73,-49,565,-922,21.9,2.8,-25.9,22.3,2.9,-25.3,5.73,2.29,-25.4,27.8
2012-03-09 01:38:00,0.0,1.9306,0.0009,402.68,0.31,159.2,35.0,138.12,28.13,24.60,36.33,0.04,-272.73,-272.73,-48,565,-922,22.0,2.8,-25.9,22.3,2.9,-25.3,5.73,2.45,-25.4,27.9
2012-03-09 01:39:00,0.0,1.9300,0.0008,402.59,0.31,160.9,35.3,138.12,28.14,24.61,36.34,0.04,-272.73,-272.73,-49,565,-922,22.0,2.8,-25.8,22.3,2.9,-25.3,5.73,2.24,-25.4,27.9
2012-03-09 01:40:00,0.0,1.9304,0.0009,402.65,0.34,160.1,30.2,138.11,28.15,24.60,36.33,0.04,-272.73,-272.73,-48,565,-922,22.0,2.8,-25.8,22.3,2.9,-25.3,5.73,2.47,-25.4,27.9
2012-03-09 01:41:00,0.0,1.9307,0.0010,402.58,0.32,163.6,31.8,138.12,28.15,24.60,36.33,0.04,-272.73,-272.73,-49,565,-922,22.0,2.8,-25.8,22.3,2.9,-25.3,5.73,2.25,-25.4,27.9
2012-03-09 01:42:00,0.0,1.9304,0.0009,402.57,0.34,162.4,35.2,138.12,28.15,24.60,36.33,0.04,-272.73,-272.73,-49,565,-922,22.0,2.8,-25.8,22.3,2.9,-25.3,5.73,2.43,-25.4,27.9
2012-03-09 01:43:00,0.0,1.9306,0.0009,402.69,0.29,168.2,33.5,138.12,28.16,24.60,36.33,0.04,-272.73,-272.73,-48,565,-922,22.0,2.9,-25.7,22.3,2.9,-25.2,5.73,2.33,-25.5,27.9
2012-03-09 01:44:00,0.0,1.9301,0.0008,402.57,0.29,158.6,34.5,138.12,28.17,24.60,36.34,0.04,-272.73,-272.73,-49,565,-922,22.0,2.9,-25.7,22.3,2.9,-25.2,5.73,2.34,-25.5,27.9
2012-03-09 01:45:00,0.0,1.9305,0.0009,402.66,0.29,165.0,30.4,138.11,28.17,24.60,36.33,0.04,-272.73,-272.73,-49,565,-922,22.0,2.9,-25.7,22.3,2.9,-25.2,5.73,2.42,-25.5,27.9
2012-03-09 01:46:00,0.0,1.9303,0.0011,402.55,0.36,163.3,34.1,138.11,28.18,24.60,36.33,0.04,-272.73,-272.73,-48,565,-922,22.0,2.9,-25.7,22.3,2.9,-25.2,5.73,2.26,-25.5,27.9
2012-03-09 01:47:00,0.0,1.9303,0.0008,402.53,0.34,157.1,35.8,138.11,28.18,24.60,36.34,0.04,-272.73,-272.73,-49,565,-922,22.0,2.9,-25.7,22.3,2.9,-25.2,5.73,2.47,-25.5,27.9
2012-03-09 01:48:00,0.0,1.9302,0.0010,402.54,0.31,165.0,27.7,138.11,28.19,24.60,36.34,0.04,-272.73,-272.73,-48,565,-922,22.0,2.8,-25.8,22.3,2.9,-25.3,5.73,2.24,-25.5,27.9
2012-03-09 01:49:00,0.0,1.9299,0.0010,402.55,0.33,166.8,30.8,138.11,28.19,24.60,36.33,0.04,-272.73,-272.73,-49,565,-922,22.0,2.8,-25.9,22.3,2.9,-25.4,5.73,2.44,-25.5,27.8
2012-03-09 01:50:00,0.0,1.9301,0.0008,402.46,0.31,160.1,34.4,138.12,28.20,24.60,36.34,0.04,-272.73,-272.73,-49,565,-922,22.0,2.8,-25.9,22.3,2.9,-25.4,5.73,2.33,-25.5,27.8
2012-03-09 01:51:00,0.0,1.9295,0.0008,402.51,0.29,148.4,31.7,138.12,28.20,24.60,36.33,0.04,-272.73,-272.73,-48,565,-922,22.0,2.8,-26.0,22.3,2.8,-25.5,5.73,2.32,-25.5,27.8
2012-03-09 01:52:00,0.0,1.9293,0.0009,402.50,0.33,153.3,30.5,138.11,28.21,24.60,36.33,0.04,-272.73,-272.73,-49,565,-922,22.0,2.8,-26.0,22.3,2.8,-25.5,5.73,2.43,-25.5,27.9
2012-03-09 01:53:00,0.0,1.9297,0.0008,402.51,0.31,164.0,32.3,138.11,28.22,24.60,36.33,0.04,-272.73,-272.73,-49,566,-922,22.0,2.8,-26.0,22.4,2.8,-25.5,5.73,2.25,-25.5,27.8
2012-03-09 01:54:00,0.0,1.9293,0.0008,402.38,0.30,166.8,32.4,138.11,28.22,24.60,36.33,0.04,-272.73,-272.73,-48,565,-922,22.1,2.8,-26.0,22.4,2.8,-25.6,5.73,2.47,-25.5,27.9
2012-03-09 01:55:00,0.0,1.9292,0.0009,402.48,0.31,160.4,32.0,138.11,28.23,24.60,36.33,0.04,-272.73,-272.73,-49,565,-922,22.1,2.7,-26.1,22.4,2.8,-25.6,5.73,2.26,-25.5,27.9
2012-03-09 01:56:00,0.0,1.9286,0.0009,402.42,0.26,163.9,34.2,138.11,28.23,24.61,36.33,0.04,-272.73,-272.73,-49,565,-923,22.1,2.8,-26.1,22.4,2.8,-25.6,5.73,2.40,-25.6,27.9
2012-03-09 01:57:00,0.0,1.9289,0.0010,402.43,0.37,158.5,41.2,138.11,28.24,24.60,36.33,0.04,-272.73,-272.73,-48,565,-922,22.0,2.8,-26.1,22.4,2.8,-25.6,5.73,2.37,-25.5,27.9
2012-03-09 01:58:00,0.0,1.9289,0.0009,402.44,0.36,160.8,32.0,138.11,28.25,24.60,36.33,0.04,-272.73,-272.73,-49,565,-923,22.1,2.8,-26.1,22.4,2.8,-25.6,5.73,2.29,-25.6,27.9
2012-03-09 01:59:00,0.0,1.9292,0.0009,402.41,0.31,157.1,33.9,138.11,28.25,24.60,36.34,0.04,-272.73,-272.73,-48,566,-923,22.0,2.7,-26.2,22.4,2.8,-25.7,5.73,2.46,-25.6,27.9
2012-03-09 02:00:00,0.0,1.9290,0.0009,402.40,0.37,153.7,34.9,138.11,28.26,24.60,36.33,0.04,-272.73,-272.73,-49,565,-923,22.0,2.7,-26.2,22.4,2.8,-25.7,5.73,2.24,-25.6,27.9
2012-03-09 02:01:00,0.0,1.9288,0.0008,402.44,0.35,158.9,27.3,138.11,28.26,24.60,36.34,0.04,-272.73,-272.73,-49,565,-923,22.1,2.7,-26.2,22.4,2.8,-25.7,5.73,2.46,-25.6,27.9
2012-03-09 02:02:00,0.0,1.9290,0.0008,402.45,0.35,154.3,33.8,138.11,28.26,24.60,36.33,0.04,-272.73,-272.73,-48,565,-923,22.1,2.7,-26.3,22.4,2.8,-25.8,5.73,2.31,-25.6,27.9
2012-03-09 02:03:00,0.0,1.9287,0.0008,402.43,0.37,151.7,33.1,138.11,28.27,24.61,36.33,0.04,-272.73,-272.73,-49,565,-923,22.1,2.7,-26.4,22.4,2.7,-25.8,5.73,2.34,-25.6,28.0
2012-03-09 02:04:00,0.0,1.9288,0.0009,402.34,0.30,154.9,34.5,138.11,28.27,24.61,36.33,0.04,-272.73,-272.73,-49,565,-923,22.1,2.7,-26.4,22.4,2.7,-25.9,5.73,2.43,-25.6,28.0
2012-03-09 02:05:00,0.0,1.9289,0.0008,402.45,0.23,149.4,34.0,138.11,28.28,24.60,36.33,0.04,-272.73,-272.73,-48,566,-923,22.1,2.7,-26.4,22.4,2.7,-26.0,5.73,2.25,-25.6,28.0
2012-03-09 02:06:00,0.0,1.9289,0.0009,402.40,0.32,152.9,33.3,138.11,28.28,24.60,36.33,0.04,-272.73,-272.73,-49,565,-923,22.1,2.7,-26.4,22.4,2.7,-25.9,5.73,2.47,-25.6,28.0
2012-03-09 02:07:00,0.0,1.9288,0.0010,402.36,0.31,159.0,29.9,138.11,28.28,24.60,36.33,0.04,-272.73,-272.74,-49,565,-923,22.1,2.7,-26.4,22.4,2.7,-25.9,5.73,2.27,-25.6,27.9
2012-03-09 02:08:00,0.0,1.9290,0.0009,402.41,0.31,156.1,34.4,138.11,28.29,24.60,36.33,0.04,-272.73,-272.73,-48,565,-923,22.1,2.7,-26.4,22.4,2.7,-25.9,5.73,2.39,-25.6,27.9
2012-03-09 02:09:00,0.0,1.9285,0.0009,402.34,0.33,156.0,27.8,138.11,28.30,24.60,36.33,0.04,-272.73,-272.73,-49,565,-923,22.1,2.7,-26.4,22.4,2.7,-25.9,5.73,2.39,-25.6,27.9
2012-03-09 02:10:00,0.0,1.9284,0.0011,402.26,0.36,157.9,33.2,138.11,28.30,24.60,36.34,0.04,-272.73,-272.73,-49,566,-923,22.1,2.7,-26.4,22.4,2.7,-25.9,5.73,2.26,-25.6,28.0
2012-03-09 02:11:00,0.0,1.9282,0.0008,402.23,0.30,159.4,29.5,138.11,28.30,24.60,36.34,0.04,-272.73,-272.73,-48,565,-923,22.1,2.7,-26.4,22.5,2.7,-25.9,5.73,2.47,-25.7,28.0
2012-03-09 02:12:00,0.0,1.9279,0.0009,402.23,0.33,155.7,32.4,138.11,28.31,24.61,36.34,0.04,-272.73,-272.73,-49,565,-923,22.1,2.6,-26.4,22.4,2.7,-25.9,5.73,2.26,-25.6,28.0
2012-03-09 02:13:00,0.0,1.9280,0.0009,402.31,0.32,164.3,32.3,138.11,28.31,24.60,36.33,0.04,-272.73,-272.73,-49,566,-923,22.1,2.6,-26.5,22.5,2.7,-26.0,5.73,2.40,-25.6,28.0
2012-03-09 02:14:00,0.0,1.9281,0.0009,402.27,0.31,149.9,35.8,138.11,28.32,24.60,36.34,0.04,-272.73,-272.73,-49,565,-923,22.1,2.6,-26.5,22.5,2.7,-26.0,5.73,2.37,-25.6,28.0
2012-03-09 02:15:00,0.0,1.9279,0.0010,402.28,0.30,154.6,33.6,138.11,28.32,24.61,36.34,0.04,-272.73,-272.73,-49,565,-923,22.2,2.6,-26.5,22.5,2.7,-26.1,5.73,2.27,-25.8,28.0
2012-03-09 02:16:00,0.0,1.9280,0.0009,402.19,0.30,158.3,38.2,138.11,28.33,24.60,36.34,0.04,-272.73,-272.73,-49,566,-923,22.1,2.6,-26.6,22.5,2.7,-26.1,5.73,2.47,-25.8,28.0